Wind_Speed
11 10 10 10 10 10 9 10 10 9 9 8 8 6 5 5 5 5 6 6 7 7 7 7 8 8 8 8 9 9 9 9 8 9 9 10 10 9 9 9 9 10 10
11 11 11 10 10 10 10 10 10 10 9 9 8 8 7 6 6 6 7 7 8 7 7 8 9 9 9 10 10 11 10 10 10 10 10 11 11 11 10 9 10 11 11
12 11 12 11 11 11 10 10 10 10 10 9 9 9 8 7 6 7 8 8 8 8 7 8 9 10 10 10 11 11 10 11 11 11 11 12 12 12 12 11 11 12 12
14 13 13 12 12 11 11 11 11 11 10 10 9 9 9 8 7 7 7 7 8 9 9 9 10 10 10 11 11 12 12 12 12 13 13 13 13 13 12 12 13 13 14
15 14 14 13 13 12 12 12 12 11 11 10 10 10 9 9 8 8 8 8 9 9 9 9 9 10 11 12 12 13 13 13 14 14 13 14 14 15 14 14 14 14 14
16 16 15 14 14 14 13 13 12 11 11 11 11 10 10 11 10 9 9 9 9 9 9 10 11 11 12 12 12 13 14 15 14 14 14 15 15 16 15 15 15 16 16
17 17 17 15 15 14 14 13 12 12 11 11 11 11 12 12 12 11 10 10 11 11 11 11 12 12 12 13 13 13 14 15 15 14 14 15 16 17 17 17 17 17 17
16 18 18 17 16 14 14 13 12 12 12 12 12 12 13 13 12 11 11 12 12 12 12 13 14 14 14 15 15 15 16 16 16 16 16 17 17 17 18 18 19 18 18
17 17 18 16 15 14 13 13 13 13 13 12 12 13 13 13 12 12 12 14 14 14 14 15 16 16 16 16 16 17 17 17 18 19 20 20 20 20 21 21 21 20 20
18 17 18 17 15 14 15 14 13 13 13 13 13 13 13 14 14 14 14 15 16 16 17 17 17 18 18 18 18 19 19 19 20 21 20 21 22 22 22 22 22 23 23
19 17 17 17 17 16 16 15 14 14 15 14 14 15 16 16 16 16 17 17 18 19 19 20 20 20 20 20 21 21 21 21 22 23 23 23 24 23 22 22 22 23 24
20 19 18 18 16 16 17 17 17 17 17 17 17 18 18 18 19 19 20 20 20 21 21 22 22 23 23 23 23 22 22 22 23 23 24 24 24 23 23 23 24 23 24
21 20 19 19 19 18 19 18 18 19 19 20 20 20 20 20 21 22 22 23 23 23 23 24 24 24 25 25 25 25 24 24 24 24 24 25 25 25 26 26 25 25 25
22 22 21 20 21 21 21 20 21 22 22 22 22 22 22 22 22 23 24 24 24 25 25 25 25 26 26 26 27 27 26 26 26 26 27 27 27 27 27 27 26 26 26
24 24 23 23 23 22 22 22 23 24 24 24 24 24 24 24 24 25 26 26 26 26 26 26 26 27 27 27 27 28 29 28 28 28 29 29 28 28 27 28 28 28 28
25 25 25 24 24 24 25 25 25 26 26 27 27 26 26 27 27 27 27 27 27 27 27 27 28 28 28 29 29 30 30 30 31 30 29 29 29 28 29 30 30 30 30
28 27 27 26 26 26 26 27 27 28 28 29 29 29 29 29 29 29 29 29 28 28 29 29 30 30 30 30 30 30 30 30 30 31 30 30 30 30 30 31 31 31 31
29 28 28 28 28 28 28 29 29 30 30 31 31 31 31 31 31 31 31 31 30 31 31 31 30 30 30 30 30 30 30 31 32 31 31 31 31 31 32 32 32 31 31
31 30 30 30 30 30 30 31 31 32 32 33 33 33 33 33 33 33 33 33 33 33 33 32 31 31 31 31 31 31 31 31 31 31 31 32 33 33 33 33 33 33 33
32 32 32 32 31 31 31 31 32 32 33 34 35 35 34 34 34 34 34 35 35 35 34 34 33 33 32 32 31 31 31 31 32 32 33 33 33 34 34 34 34 34 34
31 32 32 32 32 31 31 31 32 33 34 35 35 36 36 35 35 35 35 36 35 35 35 35 34 34 33 32 32 32 32 32 32 33 33 33 34 34 35 35 35 35 35
31 32 32 32 32 32 32 32 32 33 34 34 35 36 36 37 36 36 36 36 36 36 35 35 34 34 33 33 33 33 33 32 33 33 33 34 34 35 36 35 35 36 36
33 33 33 33 32 32 32 33 33 34 34 35 35 35 36 36 36 36 36 35 35 35 35 34 34 33 33 33 33 33 32 32 32 33 33 34 35 36 36 36 37 37 37
34 34 33 33 33 33 32 33 33 34 34 34 35 35 35 35 36 35 35 35 34 34 34 34 34 33 33 33 33 33 33 33 33 34 34 35 35 35 36 36 36 37 37
34 34 34 34 34 33 33 33 33 33 34 34 35 35 35 35 35 35 35 34 34 35 34 35 35 34 33 33 33 33 33 33 33 34 34 35 34 34 34 34 34 34 36
34 34 33 34 34 34 34 33 33 34 33 34 34 35 35 35 35 34 34 34 34 34 34 35 34 34 34 33 33 33 34 33 33 34 34 33 34 33 33 33 34 34 35
Wind_Direction
330 330 334 337 338 339 341 345 346 345 343 340 336 323 314 293 276 274 282 285 286 280 273 269 271 275 277 279 279 278 279 280 283 281 275 266 269 263 263 264 267 269 276
322 327 326 332 333 334 335 338 340 339 337 334 336 330 316 298 281 279 285 289 289 279 271 271 273 275 274 276 280 282 279 278 278 279 280 277 273 266 267 267 270 274 280
315 321 324 327 327 328 329 329 330 330 332 331 329 331 323 313 296 291 293 292 289 285 280 275 278 276 275 277 279 280 284 281 278 276 278 279 275 271 271 273 273 276 281
308 311 314 319 321 320 319 320 322 325 327 326 324 325 323 318 309 304 311 307 300 295 288 285 283 283 281 283 279 278 279 280 279 278 278 277 276 275 273 273 274 276 277
303 304 308 309 311 312 312 314 317 320 323 325 321 321 316 314 307 302 306 311 312 310 304 300 292 288 288 289 284 281 282 281 281 281 278 276 277 276 276 274 274 276 278
297 299 301 303 303 303 305 307 311 314 317 321 323 319 317 311 307 299 297 303 308 311 307 304 300 292 295 295 289 286 287 284 283 282 280 278 276 275 277 277 276 276 278
293 295 298 297 295 295 297 302 305 307 312 315 319 316 315 314 310 300 297 299 302 305 305 307 306 303 303 302 296 292 292 288 285 286 287 284 278 276 276 275 277 279 280
291 294 295 293 293 291 294 296 297 301 305 310 316 315 315 317 316 303 297 297 299 301 302 302 303 302 303 304 300 293 290 288 286 287 287 286 283 281 279 277 278 280 280
290 291 292 292 291 290 290 292 292 295 300 303 309 311 313 314 315 310 305 300 299 300 300 299 299 299 300 301 300 290 288 287 288 289 288 287 285 282 281 279 281 280 279
287 285 290 292 288 285 286 288 288 293 297 299 304 306 307 310 311 308 304 306 302 298 296 296 296 297 298 297 296 295 289 286 288 289 288 288 286 285 283 281 281 282 282
290 289 287 288 288 283 282 282 286 289 293 297 300 302 304 304 303 303 302 299 297 295 295 295 295 295 296 296 296 296 292 287 288 289 288 288 286 282 283 284 282 281 283
289 287 284 285 281 281 282 280 283 287 290 293 295 297 299 299 299 300 298 296 295 295 293 292 293 293 294 293 293 294 294 292 291 290 289 287 284 281 280 281 283 284 284
285 284 284 284 283 282 281 280 282 285 287 289 292 293 295 296 297 298 296 294 293 293 292 291 291 292 291 291 291 292 290 290 291 291 291 289 285 282 279 280 281 282 283
282 281 281 282 282 281 280 282 283 284 286 287 289 290 291 293 295 295 295 294 292 292 293 291 290 290 289 290 292 293 292 290 290 290 291 291 289 286 284 283 281 282 283
278 279 279 280 281 281 280 281 281 282 284 286 287 288 289 290 292 294 294 294 292 291 292 291 289 289 290 290 292 292 291 289 288 289 289 289 288 286 286 284 283 283 282
277 277 278 279 279 280 278 278 279 280 282 284 287 287 288 289 291 292 292 292 291 291 291 291 290 290 289 289 290 290 289 288 287 288 289 287 287 286 283 281 282 283 282
276 277 276 276 277 277 277 276 278 280 281 283 285 286 286 287 289 290 291 290 289 289 290 291 290 290 289 289 289 290 289 289 288 288 287 285 284 283 281 281 281 280 280
274 274 275 275 274 274 275 275 277 279 280 282 283 285 285 286 287 288 289 288 288 289 290 291 290 290 290 289 289 289 288 288 287 285 284 283 282 282 281 279 279 278 279
271 271 272 273 274 274 274 275 276 278 279 280 281 283 284 285 286 287 287 287 287 288 288 289 289 289 289 288 288 288 288 287 287 286 284 283 281 280 281 279 277 277 278
270 271 272 273 274 274 275 275 276 277 278 280 281 283 284 284 285 285 286 286 287 287 287 288 287 287 287 287 287 287 287 286 286 286 285 284 283 281 279 278 277 277 278
269 270 271 272 273 274 274 275 276 277 279 281 282 283 285 285 285 285 286 286 286 286 286 287 287 287 287 287 287 287 287 287 286 286 287 286 285 283 281 278 277 278 278
269 269 271 272 273 274 275 275 276 278 280 281 283 284 285 285 285 285 286 286 286 285 285 285 285 285 286 287 287 288 287 287 287 288 287 286 286 284 282 281 279 278 279
269 269 271 272 273 274 275 276 277 279 281 282 283 284 285 284 284 284 285 285 284 284 283 283 283 284 285 286 286 287 287 288 287 287 288 288 286 285 284 282 280 279 279
268 269 270 272 273 274 275 277 279 280 281 283 284 286 286 286 284 285 285 284 283 284 283 282 282 282 283 285 285 286 287 288 288 287 288 288 287 285 284 282 280 278 278
269 269 270 272 273 275 276 278 280 281 282 283 284 285 285 287 287 286 286 286 285 285 284 283 282 282 283 284 285 286 287 288 288 289 288 288 288 287 285 284 281 280 280
268 269 270 272 273 275 277 278 280 282 283 284 284 285 286 286 286 287 286 287 288 288 289 286 283 284 284 283 285 287 288 288 289 290 291 290 291 291 290 288 286 284 282
Height
5907 5906 5905 5903 5902 5901 5900 5899 5898 5897 5896 5895 5895 5894 5894 5894 5894 5894 5895 5895 5895 5895 5896 5896 5897 5898 5898 5898 5898 5898 5898 5899 5899 5900 5900 5900 5900 5901 5901 5902 5902 5903 5903
5907 5905 5904 5903 5902 5901 5900 5899 5898 5897 5896 5895 5894 5894 5893 5893 5893 5893 5894 5894 5894 5894 5894 5895 5896 5896 5896 5896 5897 5897 5897 5897 5897 5898 5898 5898 5899 5898 5899 5900 5900 5900 5900
5906 5905 5904 5902 5901 5900 5899 5898 5897 5896 5895 5894 5893 5893 5892 5892 5892 5893 5893 5892 5893 5893 5893 5893 5894 5894 5894 5894 5895 5895 5895 5895 5895 5895 5895 5895 5896 5896 5897 5897 5897 5897 5897
5904 5903 5902 5901 5900 5899 5898 5897 5896 5895 5894 5893 5892 5891 5891 5891 5891 5892 5892 5892 5892 5891 5891 5891 5891 5892 5892 5892 5892 5892 5892 5893 5893 5892 5892 5893 5893 5893 5894 5894 5894 5894 5894
5902 5901 5901 5900 5899 5898 5897 5896 5895 5894 5893 5892 5891 5890 5890 5890 5890 5890 5890 5891 5890 5890 5889 5889 5889 5889 5890 5890 5889 5889 5889 5889 5890 5890 5889 5889 5889 5889 5890 5890 5890 5890 5890
5900 5899 5898 5897 5897 5896 5895 5895 5894 5893 5892 5891 5890 5889 5889 5889 5889 5889 5889 5889 5889 5888 5888 5887 5887 5887 5887 5887 5886 5886 5886 5886 5886 5886 5885 5885 5885 5885 5885 5886 5886 5886 5886
5898 5897 5895 5894 5894 5893 5893 5893 5892 5892 5891 5890 5890 5889 5889 5888 5887 5887 5887 5887 5887 5886 5886 5886 5885 5885 5885 5884 5883 5883 5883 5882 5882 5882 5881 5881 5881 5881 5881 5881 5882 5882 5882
5896 5894 5893 5892 5891 5890 5890 5890 5890 5890 5889 5889 5888 5887 5887 5886 5886 5885 5885 5885 5884 5884 5884 5883 5883 5882 5881 5881 5880 5879 5879 5879 5878 5878 5878 5877 5877 5877 5877 5877 5877 5877 5877
5893 5891 5890 5889 5888 5888 5888 5887 5887 5887 5887 5887 5886 5885 5885 5885 5884 5883 5883 5882 5881 5881 5881 5880 5879 5878 5878 5877 5876 5875 5875 5874 5874 5874 5874 5873 5873 5872 5872 5871 5872 5872 5872
5888 5887 5886 5886 5885 5885 5885 5884 5884 5885 5884 5884 5883 5883 5883 5882 5882 5881 5881 5880 5878 5878 5877 5877 5876 5874 5874 5873 5873 5872 5871 5870 5870 5869 5868 5868 5867 5867 5866 5866 5866 5866 5866
5884 5884 5883 5883 5882 5881 5881 5881 5881 5881 5881 5881 5881 5880 5880 5879 5879 5878 5877 5876 5875 5874 5873 5872 5871 5871 5870 5869 5868 5867 5866 5865 5864 5863 5862 5861 5860 5860 5860 5860 5859 5859 5859
5881 5880 5880 5879 5878 5877 5878 5878 5878 5878 5878 5878 5877 5877 5876 5875 5875 5874 5873 5872 5871 5870 5869 5868 5867 5866 5865 5864 5863 5862 5861 5860 5858 5857 5856 5854 5853 5853 5854 5853 5853 5853 5852
5877 5876 5876 5875 5875 5874 5874 5874 5874 5874 5874 5873 5873 5873 5872 5871 5870 5869 5868 5867 5866 5865 5864 5862 5861 5860 5859 5858 5857 5856 5855 5853 5852 5851 5849 5848 5847 5847 5847 5846 5846 5845 5845
5872 5872 5871 5871 5871 5870 5870 5869 5869 5869 5869 5869 5868 5868 5867 5866 5865 5864 5862 5861 5860 5859 5858 5856 5855 5854 5852 5851 5850 5849 5848 5846 5845 5844 5843 5842 5841 5840 5839 5839 5838 5838 5837
5867 5866 5866 5866 5866 5866 5865 5865 5864 5864 5864 5863 5863 5862 5861 5860 5859 5858 5856 5855 5854 5853 5852 5850 5848 5847 5845 5844 5843 5841 5840 5839 5838 5837 5836 5835 5833 5832 5832 5831 5830 5830 5829
5861 5861 5861 5860 5860 5860 5860 5859 5859 5858 5858 5857 5856 5855 5855 5854 5852 5851 5850 5848 5847 5846 5844 5843 5841 5840 5838 5837 5835 5834 5832 5831 5830 5829 5828 5826 5825 5824 5824 5823 5822 5821 5821
5854 5854 5854 5854 5854 5854 5853 5853 5853 5852 5851 5851 5850 5849 5848 5847 5846 5844 5842 5841 5839 5838 5837 5835 5833 5832 5830 5829 5827 5826 5824 5823 5822 5820 5819 5818 5817 5816 5815 5814 5813 5812 5811
5847 5847 5847 5847 5847 5847 5846 5846 5846 5845 5845 5844 5843 5842 5841 5840 5838 5837 5835 5833 5832 5830 5829 5827 5825 5823 5822 5820 5819 5817 5815 5814 5812 5811 5809 5808 5808 5806 5805 5804 5804 5803 5801
5839 5840 5840 5839 5839 5839 5839 5839 5838 5838 5837 5836 5835 5834 5833 5831 5830 5829 5827 5825 5823 5822 5820 5818 5816 5815 5813 5811 5809 5808 5806 5805 5803 5802 5800 5799 5798 5797 5796 5795 5794 5793 5792
5831 5831 5831 5831 5831 5831 5831 5831 5830 5830 5829 5828 5827 5826 5824 5823 5821 5820 5818 5816 5814 5813 5811 5809 5807 5806 5804 5802 5800 5799 5797 5796 5794 5793 5791 5790 5788 5787 5785 5784 5784 5783 5783
5823 5823 5823 5823 5823 5823 5822 5822 5822 5821 5820 5819 5818 5817 5815 5814 5812 5810 5809 5807 5805 5803 5801 5800 5798 5796 5795 5793 5791 5789 5788 5787 5785 5783 5781 5780 5778 5777 5775 5774 5773 5772 5772
5814 5814 5814 5815 5815 5815 5814 5814 5813 5812 5811 5810 5809 5808 5806 5804 5803 5801 5799 5797 5795 5793 5792 5790 5789 5787 5786 5784 5782 5780 5779 5777 5775 5773 5771 5770 5768 5766 5765 5763 5762 5762 5761
5805 5806 5806 5806 5806 5806 5806 5805 5804 5803 5802 5801 5800 5798 5797 5794 5793 5791 5789 5787 5785 5784 5782 5781 5779 5778 5777 5775 5773 5771 5769 5767 5766 5764 5762 5760 5758 5756 5754 5753 5751 5751 5750
5797 5797 5797 5797 5797 5797 5796 5796 5795 5794 5793 5791 5790 5788 5787 5785 5783 5781 5779 5778 5776 5774 5773 5771 5770 5768 5767 5765 5764 5762 5760 5758 5756 5754 5752 5750 5747 5745 5743 5742 5741 5740 5739
5787 5788 5788 5788 5788 5788 5787 5787 5786 5784 5783 5782 5780 5779 5777 5775 5773 5771 5770 5768 5767 5765 5763 5762 5760 5758 5757 5756 5754 5752 5751 5749 5747 5744 5742 5740 5737 5735 5733 5732 5730 5729 5729
5778 5778 5779 5779 5778 5778 5778 5777 5776 5775 5774 5772 5771 5769 5767 5766 5764 5762 5761 5759 5758 5756 5753 5751 5749 5748 5747 5746 5745 5743 5741 5739 5737 5735 5732 5730 5727 5725 5723 5721 5720 5719 5718